Regional Weather Roundup
Issued by NWS Charleston, SC

Current Version | Previous Version | Graphics & Text | Print | Product List | Glossary On
Versions: 1 2 3 4 5 6 7 8 9 10 11 12 13 14 15 16 17 18 19 20 21 22 23 24 25 26 27 28 29 30 31 32 33 34 35 36 37 38 39 40 41 42 43 44 45 46 47 48 49 50
000 ASUS42 KCHS 301427 RWRCHS REGIONAL WEATHER ROUNDUP NATIONAL WEATHER SERVICE CHARLESTON SC 1000 AM EDT SUN APR 30 2017 NOTE: "FAIR" INDICATES FEW OR NO CLOUDS BELOW 12,000 FEET WITH NO SIGNIFICANT WEATHER AND/OR OBSTRUCTIONS TO VISIBILITY. NOT ALL STATIONS ARE QUALITY CONTROLLED. USE DATA WITH CAUTION... ESPECIALLY DEWPOINT OBSERVATIONS. SCZ027-030-031-034>040-042>050-301500- ...SOUTHEAST SOUTH CAROLINA... CITY SKY/WX TMP DP RH WIND PRES REMARKS N CHARLESTON PTSUNNY 79 69 71 S20G25 30.19S WATERFRONT PRK N/A 77 72 84 S9 30.18R JOHNS ISLAND FAIR 81 73 78 SE12 30.20R PINOPOLIS N/A 79 72 78 S5G13 30.11F MONCKS CORNER PTSUNNY 79 70 73 S9 30.19R SUMMERVILLE RAIN 77 72 83 SE7 30.19S BEAUFORT MCAS MOSUNNY 78 75 90 S8 30.17S BEAUFORT ARPT CLOUDY 79 72 78 S9 30.17S HAZE HILTON HEAD IS MOSUNNY 77 73 88 S9 30.17S WALTERBORO CLOUDY 77 72 83 S7 30.19R ALLENDALE CLOUDY 81 70 69 SE13G18 30.14F ...SOUTHERN MIDLANDS AND PEE DEE... CITY SKY/WX TMP DP RH WIND PRES REMARKS GEORGETOWN PTSUNNY 79 72 78 S14G21 30.21F KINGSTREE FAIR 79 68 69 S8 30.19S ORANGEBURG MOSUNNY 79 69 71 S14G23 30.16F BARNWELL FAIR 79 70 73 S12G17 30.14F AIKEN FAIR 77 66 69 S10G20 30.18S MANNING PTSUNNY 75 68 78 S14G23 30.18F COLUMBIA PTSUNNY 79 68 69 S16G22 30.14F SUMTER PTSUNNY 79 68 69 S16 30.15S FLORENCE MOSUNNY 79 70 74 S13 30.19F MYRTLE BEACH MOSUNNY 81 73 78 S9 30.23R N MYRTLE BEACH CLOUDY 77 73 87 S8 30.22S $$ GAZ063-065-086>088-099>101-113>116-118-119-134>141-150-301500- ...SOUTHEAST GEORGIA... CITY SKY/WX TMP DP RH WIND PRES REMARKS SAVANNAH ARPT PTSUNNY 84 66 54 S17 30.15S HUNTER AAF MOSUNNY 79 74 85 S12G22 30.13S FORT STEWART PTSUNNY 81 68 65 SE10G22 30.12R STATESBORO MOSUNNY 81 69 66 S14 30.15S SYLVANIA MOSUNNY N/A N/A N/A S8G16 30.16S CLAXTON FAIR 78 75 90 SE7 30.15R ...CSRA...CENTRAL AND FAR SOUTHEAST GEORGIA... CITY SKY/WX TMP DP RH WIND PRES REMARKS THOMSON CLOUDY 78 67 70 SW12G17 30.18S AUGUSTA-BUSH CLOUDY 79 69 71 S15 30.12F AUGUSTA-DANIEL MOSUNNY 78 65 63 S17G25 30.14S SWAINSBORO PTSUNNY 79 70 73 S13 30.15R VIDALIA CLOUDY 81 70 69 S9G23 30.14R EASTMAN FAIR 81 58 45 S14G25 30.15S HAZLEHURST PTSUNNY 80 72 76 S9 30.14R ALMA CLOUDY 79 71 76 S12G20 30.12R WAYCROSS CLOUDY 82 74 77 S14G22 30.13R JESUP PTSUNNY 81 68 65 S6G17 30.13R BAXLEY CLOUDY 79 75 89 S10G16 30.13R BRUNSWICK PTSUNNY 79 73 83 S20G29 30.13F SAINT SIMONS CLOUDY 81 72 74 SE14 30.14S $$ SCZ027-028-034-036>038-045-046-048>050-GAZ119-141-301500- ...LAKE AND SUPPLEMENTAL COASTAL OBSERVATIONS... STATION/POSITION TIME TEMP WIND PRES WAVE SWELL AIR SEA DIR/SP/G HT/PER HT/PER/DIR (UTC) (F) (DEG/KT/KT) (MB) (FT/S) (FT/S/D) WINYAH BAY 1345 76 160/ 9 1023.0S LAKE MURRAY 1320 74 170/ 13/ 15 1020.3 ACE BASIN NERRS 1345 77 150/ 3 1022.0S FORT PULASKI 1400 79 77 170/ 8/ 12 1021.7 SAPELO ISLAND 1330 79 160/ 12 1021.0S $$ ANZ835-935-AMZ111-154-330-350-352-354-370-450-454-472-301500- ...C-MAN AND BUOY OBSERVATIONS... STATION/POSITION TIME TEMP WIND PRES WAVE SWELL AIR SEA DIR/SP/G HT/PER HT/PER/DIR (UTC) (F) (DEG/KT/KT) (MB) (FT/S) (FT/S/D) BUOY 41004 1320 76 75 170/ 12/ 14 1022.6 BUOY 41008 1250 75 74 160/ 8/ 10 1021.0 4/ 7 3/130/ 7 FOLLY BEACH CMAN 1300 75 150/ 10/ 12 1023.0R CAPERS NEARSHORE 1408 77 74 180/ 10/ 14 1022.4S FRIPP NEARSHORE 1408 75 74 150/ 8/ 12 1021.8R STATION/POSITION TIME TEMP WIND PRES WAVE SWELL AIR SEA DIR/SP/G HT/PER HT/PER/DIR (UTC) (F) (DEG/KT/KT) (MB) (FT/S) (FT/S/D) 5E ST. MARYS GA 1400 75 N/A 4/ 5 FRYING PAN BUOY 1320 76 74 180/ 12/ 14 1023.6 BUOY 41025 1250 76 74 220/ 14/ 16 1023.8 3/ 4 2/150/ 7 CAPE LOOKOUT NC 1300 76 200/ 9/ 12 1023.3R BUOY 41002 1250 74 76 150/ 10/ 12 1025.6 3/ 6 3/140/ 6 BUOY 41010 1320 77 78 140/ 17/ 23 1022.1 ST AUGUSTINE FL 1300 76 76 150/ 19/ 21 1021.2R $$

USA.gov is the U.S. government's official web portal to all federal, state and local government web resources and services.